Time,TemperatureF,DewpointF,PressureIn,WindDirection,WindDirectionDegrees,WindSpeedMPH,WindSpeedGustMPH,Humidity,HourlyPrecipIn,Conditions,Clouds,dailyrainin,SoftwareType,DateUTC
2013-03-26 00:01:00,44.7,36.2,30.00,SSE,162,0.0,1.0,72,0.00,,,0.00,WeatherCatV1.10B1784,2013-03-26 07:01:00,
2013-03-26 00:06:00,44.6,36.1,30.00,SSE,162,0.0,0.0,72,0.00,,,0.00,WeatherCatV1.10B1784,2013-03-26 07:06:00,
2013-03-26 00:11:00,44.5,36.0,30.00,SSE,162,0.0,0.0,72,0.00,,,0.00,WeatherCatV1.10B1784,2013-03-26 07:11:00,
2013-03-26 00:16:00,44.4,36.3,30.00,SSE,162,0.0,0.0,73,0.00,,,0.00,WeatherCatV1.10B1784,2013-03-26 07:16:00,
2013-03-26 00:21:00,44.3,36.5,29.99,SSE,162,0.0,0.0,74,0.00,,,0.00,WeatherCatV1.10B1784,2013-03-26 07:21:00,
2013-03-26 00:26:00,44.4,37.0,29.99,SSE,162,0.0,0.0,75,0.00,,,0.00,WeatherCatV1.10B1784,2013-03-26 07:26:00,
2013-03-26 00:31:00,44.3,37.2,30.00,SSE,162,0.0,0.0,76,0.00,,,0.00,WeatherCatV1.10B1784,2013-03-26 07:31:00,
2013-03-26 00:36:00,44.4,37.6,30.00,SSE,162,0.0,0.0,77,0.00,,,0.00,WeatherCatV1.10B1784,2013-03-26 07:36:00,
2013-03-26 00:41:00,44.4,37.6,30.00,SSE,162,1.0,1.0,77,0.00,,,0.00,WeatherCatV1.10B1784,2013-03-26 07:41:00,
2013-03-26 00:46:00,44.3,37.2,30.00,South,177,2.0,2.0,76,0.00,,,0.00,WeatherCatV1.10B1784,2013-03-26 07:46:00,
2013-03-26 00:51:00,44.4,37.3,30.00,SSW,199,1.0,2.0,76,0.00,,,0.00,WeatherCatV1.10B1784,2013-03-26 07:51:00,
2013-03-26 00:56:00,44.8,37.7,30.00,SSW,205,1.0,2.0,76,0.00,,,0.00,WeatherCatV1.10B1784,2013-03-26 07:56:00,
2013-03-26 01:01:00,45.1,38.0,30.00,SSW,200,1.0,1.0,76,0.00,,,0.00,WeatherCatV1.10B1784,2013-03-26 08:01:00,
2013-03-26 01:06:00,45.2,38.1,30.00,SSW,200,0.0,0.0,76,0.00,,,0.00,WeatherCatV1.10B1784,2013-03-26 08:06:00,
2013-03-26 01:11:00,44.9,37.5,30.00,SSW,200,0.0,0.0,75,0.00,,,0.00,WeatherCatV1.10B1784,2013-03-26 08:11:00,
2013-03-26 01:16:00,44.6,37.5,30.00,South,191,0.0,0.0,76,0.00,,,0.00,WeatherCatV1.10B1784,2013-03-26 08:16:00,
2013-03-26 01:21:00,44.9,39.1,30.00,SSE,150,0.0,0.0,80,0.00,,,0.00,WeatherCatV1.10B1784,2013-03-26 08:21:00,
2013-03-26 01:26:00,45.0,38.9,30.00,SSE,150,0.0,0.0,79,0.00,,,0.00,WeatherCatV1.10B1784,2013-03-26 08:26:00,
2013-03-26 01:31:00,44.6,38.8,30.00,South,174,0.0,0.0,80,0.00,,,0.00,WeatherCatV1.10B1784,2013-03-26 08:31:00,
2013-03-26 01:36:00,44.5,39.0,30.00,South,176,0.0,0.0,81,0.00,,,0.00,WeatherCatV1.10B1784,2013-03-26 08:36:00,
2013-03-26 01:41:00,44.3,38.8,30.00,South,176,0.0,0.0,81,0.00,,,0.00,WeatherCatV1.10B1784,2013-03-26 08:41:00,
2013-03-26 01:46:00,44.2,38.7,30.00,SSW,195,0.0,0.0,81,0.00,,,0.00,WeatherCatV1.10B1784,2013-03-26 08:46:00,
2013-03-26 01:51:00,44.2,38.7,30.00,SSW,198,0.0,0.0,81,0.00,,,0.00,WeatherCatV1.10B1784,2013-03-26 08:51:00,
2013-03-26 01:56:00,44.2,38.7,30.00,South,190,0.0,0.0,81,0.00,,,0.00,WeatherCatV1.10B1784,2013-03-26 08:56:00,
2013-03-26 02:01:00,44.3,38.8,30.00,SSW,201,1.0,2.0,81,0.00,,,0.00,WeatherCatV1.10B1784,2013-03-26 09:01:00,
2013-03-26 02:06:00,44.4,39.3,30.00,South,172,1.0,1.0,82,0.00,,,0.00,WeatherCatV1.10B1784,2013-03-26 09:06:00,
2013-03-26 02:11:00,44.5,39.0,30.00,SSW,207,1.0,1.0,81,0.00,,,0.00,WeatherCatV1.10B1784,2013-03-26 09:11:00,
2013-03-26 02:16:00,44.5,39.0,30.00,SW,226,1.0,1.0,81,0.00,,,0.00,WeatherCatV1.10B1784,2013-03-26 09:16:00,
2013-03-26 02:21:00,44.5,39.0,30.00,SW,220,0.0,1.0,81,0.00,,,0.00,WeatherCatV1.10B1784,2013-03-26 09:21:00,
2013-03-26 02:26:00,44.5,39.0,30.00,SSW,210,1.0,1.0,81,0.00,,,0.00,WeatherCatV1.10B1784,2013-03-26 09:26:00,
2013-03-26 02:31:00,44.5,39.0,30.00,SSW,210,1.0,1.0,81,0.00,,,0.00,WeatherCatV1.10B1784,2013-03-26 09:31:00,
2013-03-26 02:36:00,44.3,38.8,30.00,SSW,210,1.0,1.0,81,0.00,,,0.00,WeatherCatV1.10B1784,2013-03-26 09:36:00,
2013-03-26 02:41:00,44.1,38.6,30.00,SSE,158,1.0,1.0,81,0.00,,,0.00,WeatherCatV1.10B1784,2013-03-26 09:41:00,
2013-03-26 02:46:00,43.9,38.8,30.00,SSE,158,1.0,1.0,82,0.00,,,0.00,WeatherCatV1.10B1784,2013-03-26 09:46:00,
2013-03-26 02:51:00,44.0,38.9,30.00,SSE,161,1.0,1.0,82,0.00,,,0.00,WeatherCatV1.10B1784,2013-03-26 09:51:00,
2013-03-26 02:56:00,44.1,39.0,30.00,SSW,193,1.0,1.0,82,0.00,,,0.00,WeatherCatV1.10B1784,2013-03-26 09:56:00,
2013-03-26 03:01:00,44.0,38.9,30.00,SSE,162,1.0,1.0,82,0.00,,,0.00,WeatherCatV1.10B1784,2013-03-26 10:01:00,
2013-03-26 03:06:00,43.9,38.8,30.00,SSE,158,1.0,1.0,82,0.00,,,0.00,WeatherCatV1.10B1784,2013-03-26 10:06:00,
2013-03-26 03:11:00,43.7,38.6,30.00,SSE,158,1.0,1.0,82,0.00,,,0.00,WeatherCatV1.10B1784,2013-03-26 10:11:00,
2013-03-26 03:16:00,43.7,38.9,30.00,South,171,0.0,1.0,83,0.00,,,0.00,WeatherCatV1.10B1784,2013-03-26 10:16:00,
2013-03-26 03:21:00,43.7,38.6,30.00,South,170,0.0,0.0,82,0.00,,,0.00,WeatherCatV1.10B1784,2013-03-26 10:21:00,
2013-03-26 03:26:00,43.8,38.7,30.00,South,170,0.0,0.0,82,0.00,,,0.00,WeatherCatV1.10B1784,2013-03-26 10:26:00,
2013-03-26 03:31:00,43.7,38.6,30.00,South,169,1.0,1.0,82,0.00,,,0.00,WeatherCatV1.10B1784,2013-03-26 10:31:00,
2013-03-26 03:36:00,43.5,38.7,30.00,SSE,149,1.0,1.0,83,0.00,,,0.00,WeatherCatV1.10B1784,2013-03-26 10:36:00,
2013-03-26 03:41:00,43.3,38.5,30.00,SSE,150,1.0,1.0,83,0.00,,,0.00,WeatherCatV1.10B1784,2013-03-26 10:41:00,
2013-03-26 03:46:00,43.2,38.4,30.00,SSE,155,1.0,1.0,83,0.00,,,0.00,WeatherCatV1.10B1784,2013-03-26 10:46:00,
2013-03-26 03:51:00,43.2,38.4,30.00,SSE,168,0.0,1.0,83,0.00,,,0.00,WeatherCatV1.10B1784,2013-03-26 10:51:00,
2013-03-26 03:56:00,43.1,38.3,30.00,SE,142,1.0,1.0,83,0.00,,,0.00,WeatherCatV1.10B1784,2013-03-26 10:56:00,
2013-03-26 04:01:00,43.0,38.2,30.00,SE,143,1.0,1.0,83,0.00,,,0.00,WeatherCatV1.10B1784,2013-03-26 11:01:00,
2013-03-26 04:06:00,42.9,38.1,30.00,SSE,148,0.0,1.0,83,0.00,,,0.00,WeatherCatV1.10B1784,2013-03-26 11:06:00,
2013-03-26 04:11:00,42.9,38.1,30.00,SSE,148,1.0,1.0,83,0.00,,,0.00,WeatherCatV1.10B1784,2013-03-26 11:11:00,
2013-03-26 04:16:00,43.0,38.5,30.00,South,188,1.0,1.0,84,0.00,,,0.00,WeatherCatV1.10B1784,2013-03-26 11:16:00,
2013-03-26 04:21:00,43.3,38.5,30.00,South,188,1.0,1.0,83,0.00,,,0.00,WeatherCatV1.10B1784,2013-03-26 11:21:00,
2013-03-26 04:26:00,43.3,38.2,30.00,South,169,1.0,1.0,82,0.00,,,0.00,WeatherCatV1.10B1784,2013-03-26 11:26:00,
2013-03-26 04:31:00,43.2,38.1,30.00,SE,145,1.0,1.0,82,0.00,,,0.00,WeatherCatV1.10B1784,2013-03-26 11:31:00,
2013-03-26 04:36:00,43.1,38.3,30.00,SSE,148,0.0,0.0,83,0.00,,,0.00,WeatherCatV1.10B1784,2013-03-26 11:36:00,
2013-03-26 04:41:00,43.0,38.2,30.00,SSE,150,1.0,1.0,83,0.00,,,0.00,WeatherCatV1.10B1784,2013-03-26 11:41:00,
2013-03-26 04:46:00,42.9,38.1,30.00,SE,143,1.0,1.0,83,0.00,,,0.00,WeatherCatV1.10B1784,2013-03-26 11:46:00,
2013-03-26 04:51:00,42.9,38.1,30.00,SE,143,0.0,1.0,83,0.00,,,0.00,WeatherCatV1.10B1784,2013-03-26 11:51:00,
2013-03-26 04:56:00,42.8,38.0,30.00,SE,143,0.0,0.0,83,0.00,,,0.00,WeatherCatV1.10B1784,2013-03-26 11:56:00,
2013-03-26 05:01:00,42.7,37.9,30.00,SE,143,0.0,0.0,83,0.00,,,0.00,WeatherCatV1.10B1784,2013-03-26 12:01:00,
2013-03-26 05:06:00,42.8,38.0,30.00,SE,143,0.0,0.0,83,0.00,,,0.00,WeatherCatV1.10B1784,2013-03-26 12:06:00,
2013-03-26 05:11:00,43.0,38.2,30.00,SE,145,0.0,0.0,83,0.00,,,0.00,WeatherCatV1.10B1784,2013-03-26 12:11:00,
2013-03-26 05:16:00,43.2,38.4,30.00,SSW,194,0.0,0.0,83,0.00,,,0.00,WeatherCatV1.10B1784,2013-03-26 12:16:00,
2013-03-26 05:21:00,43.5,38.4,30.00,SSW,194,0.0,0.0,82,0.00,,,0.00,WeatherCatV1.10B1784,2013-03-26 12:21:00,
2013-03-26 05:26:00,43.6,38.5,30.00,SSW,194,0.0,0.0,82,0.00,,,0.00,WeatherCatV1.10B1784,2013-03-26 12:26:00,
2013-03-26 05:31:00,43.7,38.6,30.00,SSW,203,0.0,0.0,82,0.00,,,0.00,WeatherCatV1.10B1784,2013-03-26 12:31:00,
2013-03-26 05:36:00,43.7,38.6,30.00,SSW,208,0.0,0.0,82,0.00,,,0.00,WeatherCatV1.10B1784,2013-03-26 12:36:00,
2013-03-26 05:41:00,43.7,38.6,30.00,SSW,200,0.0,0.0,82,0.00,,,0.00,WeatherCatV1.10B1784,2013-03-26 12:41:00,
2013-03-26 05:46:00,43.8,38.7,30.00,SSW,195,0.0,0.0,82,0.00,,,0.00,WeatherCatV1.10B1784,2013-03-26 12:46:00,
2013-03-26 05:51:00,44.0,38.9,30.00,SSW,203,0.0,0.0,82,0.00,,,0.00,WeatherCatV1.10B1784,2013-03-26 12:51:00,
2013-03-26 05:56:00,44.1,38.6,30.00,SSW,201,0.0,0.0,81,0.00,,,0.00,WeatherCatV1.10B1784,2013-03-26 12:56:00,
2013-03-26 06:01:00,44.2,38.7,30.00,SSW,207,2.0,2.0,81,0.00,,,0.00,WeatherCatV1.10B1784,2013-03-26 13:01:00,
2013-03-26 06:06:00,44.3,38.8,30.00,South,174,1.0,1.0,81,0.00,,,0.00,WeatherCatV1.10B1784,2013-03-26 13:06:00,
2013-03-26 06:11:00,44.4,38.9,30.00,South,174,0.0,1.0,81,0.00,,,0.00,WeatherCatV1.10B1784,2013-03-26 13:11:00,
2013-03-26 06:16:00,44.4,38.9,30.00,South,174,0.0,1.0,81,0.00,,,0.00,WeatherCatV1.10B1784,2013-03-26 13:16:00,
2013-03-26 06:21:00,44.3,38.8,30.01,South,175,0.0,1.0,81,0.00,,,0.00,WeatherCatV1.10B1784,2013-03-26 13:21:00,
2013-03-26 06:26:00,44.2,39.1,30.01,South,174,0.0,1.0,82,0.00,,,0.00,WeatherCatV1.10B1784,2013-03-26 13:26:00,
2013-03-26 06:31:00,44.1,39.0,30.01,SW,225,1.0,2.0,82,0.00,,,0.00,WeatherCatV1.10B1784,2013-03-26 13:31:00,
2013-03-26 06:36:00,44.0,39.2,30.01,SSW,208,1.0,2.0,83,0.00,,,0.00,WeatherCatV1.10B1784,2013-03-26 13:36:00,
2013-03-26 06:41:00,44.0,38.9,30.01,SSW,205,1.0,1.0,82,0.00,,,0.00,WeatherCatV1.10B1784,2013-03-26 13:41:00,
2013-03-26 06:46:00,44.0,38.9,30.01,SSW,198,1.0,1.0,82,0.00,,,0.00,WeatherCatV1.10B1784,2013-03-26 13:46:00,
2013-03-26 06:51:00,44.1,39.0,30.01,SSW,197,1.0,1.0,82,0.00,,,0.00,WeatherCatV1.10B1784,2013-03-26 13:51:00,
2013-03-26 06:56:00,44.0,38.5,30.01,SSW,195,1.0,1.0,81,0.00,,,0.00,WeatherCatV1.10B1784,2013-03-26 13:56:00,
2013-03-26 07:01:00,43.9,38.5,30.01,South,169,1.0,1.0,81,0.00,,,0.00,WeatherCatV1.10B1784,2013-03-26 14:01:00,
2013-03-26 07:06:00,43.8,38.7,30.01,South,169,1.0,1.0,82,0.00,,,0.00,WeatherCatV1.10B1784,2013-03-26 14:06:00,
2013-03-26 07:11:00,43.7,38.6,30.01,South,169,1.0,1.0,82,0.00,,,0.00,WeatherCatV1.10B1784,2013-03-26 14:11:00,
2013-03-26 07:16:00,43.6,38.5,30.01,SW,214,1.0,1.0,82,0.00,,,0.00,WeatherCatV1.10B1784,2013-03-26 14:16:00,
2013-03-26 07:21:00,43.5,38.7,30.01,SW,214,0.0,0.0,83,0.00,,,0.00,WeatherCatV1.10B1784,2013-03-26 14:21:00,
2013-03-26 07:26:00,43.5,38.7,30.01,SSW,212,1.0,1.0,83,0.00,,,0.00,WeatherCatV1.10B1784,2013-03-26 14:26:00,
2013-03-26 07:31:00,43.7,38.6,30.01,SSW,212,1.0,1.0,82,0.00,,,0.00,WeatherCatV1.10B1784,2013-03-26 14:31:00,
2013-03-26 07:36:00,43.9,38.8,30.01,SSW,212,1.0,1.0,82,0.00,,,0.00,WeatherCatV1.10B1784,2013-03-26 14:36:00,
2013-03-26 07:41:00,44.1,38.6,30.01,SSW,211,1.0,1.0,81,0.00,,,0.00,WeatherCatV1.10B1784,2013-03-26 14:41:00,
2013-03-26 07:46:00,44.2,38.7,30.01,SSW,200,1.0,1.0,81,0.00,,,0.00,WeatherCatV1.10B1784,2013-03-26 14:46:00,
2013-03-26 07:51:00,44.2,38.7,30.02,SSW,205,1.0,1.0,81,0.00,,,0.00,WeatherCatV1.10B1784,2013-03-26 14:51:00,
2013-03-26 07:56:00,44.3,39.2,30.02,SSW,205,0.0,1.0,82,0.00,,,0.00,WeatherCatV1.10B1784,2013-03-26 14:56:00,
2013-03-26 08:01:00,44.5,39.0,30.02,SSW,206,0.0,0.0,81,0.00,,,0.00,WeatherCatV1.10B1784,2013-03-26 15:01:00,
2013-03-26 08:06:00,44.6,39.1,30.02,SSW,205,0.0,0.0,81,0.00,,,0.00,WeatherCatV1.10B1784,2013-03-26 15:06:00,
2013-03-26 08:11:00,44.7,39.2,30.02,SSW,205,0.0,0.0,81,0.00,,,0.00,WeatherCatV1.10B1784,2013-03-26 15:11:00,
2013-03-26 08:16:00,44.7,39.5,30.02,SSW,205,0.0,0.0,82,0.00,,,0.00,WeatherCatV1.10B1784,2013-03-26 15:16:00,
2013-03-26 08:21:00,44.7,39.5,30.02,SSW,205,0.0,0.0,82,0.00,,,0.00,WeatherCatV1.10B1784,2013-03-26 15:21:00,
2013-03-26 08:26:00,44.8,39.6,30.02,SSW,205,0.0,0.0,82,0.00,,,0.00,WeatherCatV1.10B1784,2013-03-26 15:26:00,
2013-03-26 08:31:00,44.9,39.7,30.02,SSW,205,0.0,0.0,82,0.00,,,0.00,WeatherCatV1.10B1784,2013-03-26 15:31:00,
2013-03-26 08:36:00,45.1,39.9,30.02,SSW,205,0.0,0.0,82,0.00,,,0.00,WeatherCatV1.10B1784,2013-03-26 15:36:00,
2013-03-26 08:41:00,45.4,40.2,30.02,SSW,206,0.0,0.0,82,0.00,,,0.00,WeatherCatV1.10B1784,2013-03-26 15:41:00,
2013-03-26 08:46:00,45.8,40.6,30.02,SSW,205,0.0,0.0,82,0.00,,,0.00,WeatherCatV1.10B1784,2013-03-26 15:46:00,
2013-03-26 08:51:00,45.9,40.1,30.02,SSW,205,0.0,0.0,80,0.00,,,0.00,WeatherCatV1.10B1784,2013-03-26 15:51:00,
2013-03-26 08:56:00,46.1,40.3,30.02,SSW,205,0.0,0.0,80,0.00,,,0.00,WeatherCatV1.10B1784,2013-03-26 15:56:00,
2013-03-26 09:01:00,46.2,39.7,30.02,SSW,206,0.0,0.0,78,0.00,,,0.00,WeatherCatV1.10B1784,2013-03-26 16:01:00,
2013-03-26 09:06:00,46.4,40.2,30.02,SSW,205,0.0,1.0,79,0.00,,,0.00,WeatherCatV1.10B1784,2013-03-26 16:06:00,
2013-03-26 09:11:00,46.8,41.3,30.02,SW,229,0.0,1.0,81,0.00,,,0.00,WeatherCatV1.10B1784,2013-03-26 16:11:00,
2013-03-26 09:16:00,46.8,41.3,30.02,WNW,295,0.0,1.0,81,0.00,,,0.00,WeatherCatV1.10B1784,2013-03-26 16:16:00,
2013-03-26 09:21:00,46.9,41.4,30.02,NW,316,0.0,1.0,81,0.00,,,0.00,WeatherCatV1.10B1784,2013-03-26 16:21:00,
2013-03-26 09:26:00,47.2,42.0,30.02,WNW,300,0.0,1.0,82,0.00,,,0.00,WeatherCatV1.10B1784,2013-03-26 16:26:00,
2013-03-26 09:31:00,47.1,41.6,30.02,NW,325,0.0,1.0,81,0.00,,,0.00,WeatherCatV1.10B1784,2013-03-26 16:31:00,
2013-03-26 09:36:00,47.2,42.0,30.02,South,187,0.0,0.0,82,0.00,,,0.00,WeatherCatV1.10B1784,2013-03-26 16:36:00,
2013-03-26 09:41:00,47.1,41.3,30.02,South,188,0.0,1.0,80,0.00,,,0.00,WeatherCatV1.10B1784,2013-03-26 16:41:00,
2013-03-26 09:46:00,47.1,40.9,30.02,South,187,0.0,1.0,79,0.00,,,0.00,WeatherCatV1.10B1784,2013-03-26 16:46:00,
2013-03-26 09:51:00,47.1,40.9,30.02,South,184,0.0,1.0,79,0.00,,,0.00,WeatherCatV1.10B1784,2013-03-26 16:51:00,
2013-03-26 09:56:00,47.4,41.2,30.02,NNE,19,1.0,1.0,79,0.00,,,0.00,WeatherCatV1.10B1784,2013-03-26 16:56:00,
2013-03-26 10:01:00,47.4,40.9,30.03,North,11,1.0,1.0,78,0.00,,,0.00,WeatherCatV1.10B1784,2013-03-26 17:01:00,
2013-03-26 10:06:00,47.3,41.1,30.03,NNW,330,1.0,1.0,79,0.00,,,0.00,WeatherCatV1.10B1784,2013-03-26 17:06:00,
2013-03-26 10:11:00,47.2,41.0,30.03,NNW,333,1.0,1.0,79,0.00,,,0.00,WeatherCatV1.10B1784,2013-03-26 17:11:00,
2013-03-26 10:16:00,47.2,40.7,30.03,NW,311,1.0,1.0,78,0.00,,,0.00,WeatherCatV1.10B1784,2013-03-26 17:16:00,
2013-03-26 10:21:00,47.2,40.7,30.03,NW,307,2.0,2.0,78,0.00,,,0.00,WeatherCatV1.10B1784,2013-03-26 17:21:00,
2013-03-26 10:26:00,47.5,41.0,30.03,NNW,339,2.0,2.0,78,0.00,,,0.00,WeatherCatV1.10B1784,2013-03-26 17:26:00,
2013-03-26 10:31:00,47.6,41.1,30.03,NNW,335,1.0,2.0,78,0.00,,,0.00,WeatherCatV1.10B1784,2013-03-26 17:31:00,
2013-03-26 10:36:00,47.6,41.4,30.03,NNW,341,1.0,2.0,79,0.00,,,0.00,WeatherCatV1.10B1784,2013-03-26 17:36:00,
2013-03-26 10:41:00,47.5,41.3,30.03,NNW,332,1.0,1.0,79,0.00,,,0.00,WeatherCatV1.10B1784,2013-03-26 17:41:00,
2013-03-26 10:46:00,47.6,41.4,30.03,North,358,1.0,1.0,79,0.00,,,0.00,WeatherCatV1.10B1784,2013-03-26 17:46:00,
2013-03-26 10:51:00,47.6,41.4,30.03,NNE,12,1.0,2.0,79,0.00,,,0.00,WeatherCatV1.10B1784,2013-03-26 17:51:00,
2013-03-26 10:56:00,47.5,41.3,30.03,NNE,27,1.0,2.0,79,0.00,,,0.00,WeatherCatV1.10B1784,2013-03-26 17:56:00,
2013-03-26 11:01:00,47.5,41.3,30.03,NNE,30,1.0,2.0,79,0.00,,,0.00,WeatherCatV1.10B1784,2013-03-26 18:01:00,
2013-03-26 11:06:00,47.3,41.4,30.03,NNE,30,2.0,2.0,80,0.00,,,0.00,WeatherCatV1.10B1784,2013-03-26 18:06:00,
2013-03-26 11:11:00,47.3,41.4,30.03,NNE,25,2.0,3.0,80,0.00,,,0.00,WeatherCatV1.10B1784,2013-03-26 18:11:00,
2013-03-26 11:16:00,47.2,41.7,30.03,NNE,29,2.0,2.0,81,0.00,,,0.00,WeatherCatV1.10B1784,2013-03-26 18:16:00,
2013-03-26 11:21:00,47.1,41.6,30.03,NNE,23,1.0,2.0,81,0.00,,,0.00,WeatherCatV1.10B1784,2013-03-26 18:21:00,
2013-03-26 11:26:00,47.2,42.0,30.03,NNE,26,1.0,2.0,82,0.00,,,0.00,WeatherCatV1.10B1784,2013-03-26 18:26:00,
2013-03-26 11:31:00,47.2,42.0,30.03,NNE,32,1.0,2.0,82,0.00,,,0.00,WeatherCatV1.10B1784,2013-03-26 18:31:00,
2013-03-26 11:36:00,47.3,42.4,30.04,North,351,2.0,2.0,83,0.00,,,0.00,WeatherCatV1.10B1784,2013-03-26 18:36:00,
2013-03-26 11:41:00,47.8,42.9,30.04,NNE,29,2.0,2.0,83,0.00,,,0.00,WeatherCatV1.10B1784,2013-03-26 18:41:00,
2013-03-26 11:46:00,48.1,42.9,30.04,NE,36,2.0,2.0,82,0.00,,,0.00,WeatherCatV1.10B1784,2013-03-26 18:46:00,
2013-03-26 11:51:00,48.2,43.0,30.03,North,354,2.0,2.0,82,0.00,,,0.00,WeatherCatV1.10B1784,2013-03-26 18:51:00,
2013-03-26 11:56:00,48.4,43.2,30.03,NNE,31,2.0,2.0,82,0.00,,,0.00,WeatherCatV1.10B1784,2013-03-26 18:56:00,
2013-03-26 12:01:00,48.5,43.3,30.04,North,8,2.0,2.0,82,0.00,,,0.00,WeatherCatV1.10B1784,2013-03-26 19:01:00,
2013-03-26 12:06:00,48.6,43.4,30.04,NNW,337,1.0,2.0,82,0.00,,,0.00,WeatherCatV1.10B1784,2013-03-26 19:06:00,
2013-03-26 12:11:00,48.7,43.5,30.04,NNE,15,2.0,2.0,82,0.00,,,0.00,WeatherCatV1.10B1784,2013-03-26 19:11:00,
2013-03-26 12:16:00,48.7,43.5,30.04,NNW,347,2.0,3.0,82,0.00,,,0.00,WeatherCatV1.10B1784,2013-03-26 19:16:00,
2013-03-26 12:21:00,48.6,43.4,30.04,NNW,340,1.0,2.0,82,0.00,,,0.00,WeatherCatV1.10B1784,2013-03-26 19:21:00,
2013-03-26 12:26:00,48.5,43.6,30.04,North,1,2.0,2.0,83,0.00,,,0.00,WeatherCatV1.10B1784,2013-03-26 19:26:00,
2013-03-26 12:31:00,48.6,43.7,30.04,NNW,335,1.0,3.0,83,0.00,,,0.00,WeatherCatV1.10B1784,2013-03-26 19:31:00,
2013-03-26 12:36:00,48.7,43.8,30.04,NNW,331,1.0,3.0,83,0.00,,,0.00,WeatherCatV1.10B1784,2013-03-26 19:36:00,
2013-03-26 12:41:00,48.9,44.0,30.03,NNE,18,2.0,3.0,83,0.00,,,0.00,WeatherCatV1.10B1784,2013-03-26 19:41:00,
2013-03-26 12:46:00,49.0,44.1,30.04,North,349,1.0,3.0,83,0.00,,,0.00,WeatherCatV1.10B1784,2013-03-26 19:46:00,
2013-03-26 12:51:00,49.0,43.7,30.03,NNW,342,1.0,2.0,82,0.00,,,0.00,WeatherCatV1.10B1784,2013-03-26 19:51:00,
2013-03-26 12:56:00,49.1,43.8,30.03,NNW,346,2.0,3.0,82,0.00,,,0.00,WeatherCatV1.10B1784,2013-03-26 19:56:00,
2013-03-26 13:01:00,49.0,43.7,30.03,NNW,337,2.0,3.0,82,0.00,,,0.00,WeatherCatV1.10B1784,2013-03-26 20:01:00,
2013-03-26 13:06:00,49.1,43.8,30.03,NE,40,2.0,3.0,82,0.00,,,0.00,WeatherCatV1.10B1784,2013-03-26 20:06:00,
2013-03-26 13:11:00,49.0,43.7,30.03,North,354,2.0,3.0,82,0.00,,,0.00,WeatherCatV1.10B1784,2013-03-26 20:11:00,
2013-03-26 13:16:00,48.9,43.6,30.03,North,357,2.0,2.0,82,0.00,,,0.00,WeatherCatV1.10B1784,2013-03-26 20:16:00,
2013-03-26 13:21:00,49.1,44.2,30.03,NNW,338,2.0,3.0,83,0.00,,,0.00,WeatherCatV1.10B1784,2013-03-26 20:21:00,
2013-03-26 13:26:00,49.3,44.4,30.03,North,359,2.0,3.0,83,0.00,,,0.00,WeatherCatV1.10B1784,2013-03-26 20:26:00,
2013-03-26 13:31:00,49.5,44.6,30.03,NNE,22,2.0,2.0,83,0.00,,,0.00,WeatherCatV1.10B1784,2013-03-26 20:31:00,
2013-03-26 13:36:00,49.4,44.1,30.03,NNW,336,2.0,3.0,82,0.00,,,0.00,WeatherCatV1.10B1784,2013-03-26 20:36:00,
2013-03-26 13:41:00,49.5,44.2,30.03,NNW,343,3.0,3.0,82,0.00,,,0.00,WeatherCatV1.10B1784,2013-03-26 20:41:00,
2013-03-26 13:46:00,49.4,44.1,30.03,NNW,333,2.0,2.0,82,0.00,,,0.00,WeatherCatV1.10B1784,2013-03-26 20:46:00,
2013-03-26 13:51:00,49.3,44.4,30.03,NNW,333,1.0,2.0,83,0.00,,,0.00,WeatherCatV1.10B1784,2013-03-26 20:51:00,
2013-03-26 13:56:00,49.4,44.5,30.03,North,355,2.0,2.0,83,0.00,,,0.00,WeatherCatV1.10B1784,2013-03-26 20:56:00,
2013-03-26 14:01:00,49.4,44.1,30.03,NE,39,1.0,3.0,82,0.00,,,0.00,WeatherCatV1.10B1784,2013-03-26 21:01:00,
2013-03-26 14:06:00,49.1,43.8,30.03,NNE,32,0.0,3.0,82,0.00,,,0.00,WeatherCatV1.10B1784,2013-03-26 21:06:00,
2013-03-26 14:11:00,49.3,44.4,30.03,NE,34,2.0,3.0,83,0.00,,,0.00,WeatherCatV1.10B1784,2013-03-26 21:11:00,
2013-03-26 14:16:00,49.5,44.6,30.03,NNE,15,1.0,3.0,83,0.00,,,0.00,WeatherCatV1.10B1784,2013-03-26 21:16:00,
2013-03-26 14:21:00,49.5,44.6,30.03,North,1,2.0,3.0,83,0.00,,,0.00,WeatherCatV1.10B1784,2013-03-26 21:21:00,
2013-03-26 14:26:00,49.5,44.2,30.02,NNW,333,2.0,2.0,82,0.00,,,0.00,WeatherCatV1.10B1784,2013-03-26 21:26:00,
2013-03-26 14:31:00,49.7,44.4,30.02,NNW,339,2.0,3.0,82,0.00,,,0.00,WeatherCatV1.10B1784,2013-03-26 21:31:00,
2013-03-26 14:36:00,49.8,44.5,30.02,NNW,343,3.0,3.0,82,0.00,,,0.00,WeatherCatV1.10B1784,2013-03-26 21:36:00,
2013-03-26 14:41:00,49.6,44.3,30.02,North,6,2.0,3.0,82,0.00,,,0.00,WeatherCatV1.10B1784,2013-03-26 21:41:00,
2013-03-26 14:46:00,49.7,44.4,30.02,NNW,333,1.0,3.0,82,0.00,,,0.00,WeatherCatV1.10B1784,2013-03-26 21:46:00,
2013-03-26 14:51:00,49.9,44.3,30.02,NNW,343,1.0,2.0,81,0.00,,,0.00,WeatherCatV1.10B1784,2013-03-26 21:51:00,
2013-03-26 14:56:00,50.0,44.4,30.02,NNW,339,2.0,2.0,81,0.00,,,0.00,WeatherCatV1.10B1784,2013-03-26 21:56:00,
2013-03-26 15:01:00,50.0,44.1,30.02,NNW,332,2.0,3.0,80,0.00,,,0.00,WeatherCatV1.10B1784,2013-03-26 22:01:00,
2013-03-26 15:06:00,50.0,44.1,30.02,NNW,328,1.0,2.0,80,0.00,,,0.00,WeatherCatV1.10B1784,2013-03-26 22:06:00,
2013-03-26 15:11:00,50.2,44.3,30.02,NNW,332,1.0,2.0,80,0.00,,,0.00,WeatherCatV1.10B1784,2013-03-26 22:11:00,
2013-03-26 15:16:00,50.0,44.4,30.02,North,357,2.0,2.0,81,0.00,,,0.00,WeatherCatV1.10B1784,2013-03-26 22:16:00,
2013-03-26 15:21:00,50.4,45.1,30.02,NNW,330,1.0,2.0,82,0.00,,,0.00,WeatherCatV1.10B1784,2013-03-26 22:21:00,
2013-03-26 15:26:00,51.2,45.6,30.02,NNW,344,2.0,2.0,81,0.00,,,0.00,WeatherCatV1.10B1784,2013-03-26 22:26:00,
2013-03-26 15:31:00,51.2,44.9,30.02,WNW,298,2.0,2.0,79,0.00,,,0.00,WeatherCatV1.10B1784,2013-03-26 22:31:00,
2013-03-26 15:36:00,51.0,45.0,30.02,NNW,338,1.0,2.0,80,0.00,,,0.00,WeatherCatV1.10B1784,2013-03-26 22:36:00,
2013-03-26 15:41:00,50.8,44.5,30.02,WNW,294,1.0,2.0,79,0.00,,,0.00,WeatherCatV1.10B1784,2013-03-26 22:41:00,
2013-03-26 15:46:00,50.6,44.3,30.02,NW,314,0.0,1.0,79,0.00,,,0.00,WeatherCatV1.10B1784,2013-03-26 22:46:00,
2013-03-26 15:51:00,50.3,44.0,30.01,NW,319,0.0,2.0,79,0.00,,,0.00,WeatherCatV1.10B1784,2013-03-26 22:51:00,
2013-03-26 15:56:00,50.1,44.2,30.01,NW,318,1.0,1.0,80,0.00,,,0.00,WeatherCatV1.10B1784,2013-03-26 22:56:00,
2013-03-26 16:01:00,49.9,44.0,30.01,NNW,337,1.0,1.0,80,0.00,,,0.00,WeatherCatV1.10B1784,2013-03-26 23:01:00,
2013-03-26 16:06:00,49.9,44.3,30.01,WNW,288,0.0,1.0,81,0.00,,,0.00,WeatherCatV1.10B1784,2013-03-26 23:06:00,
2013-03-26 16:11:00,50.0,44.4,30.01,NW,305,2.0,2.0,81,0.00,,,0.00,WeatherCatV1.10B1784,2013-03-26 23:11:00,
2013-03-26 16:16:00,50.0,44.1,30.01,NNW,334,1.0,2.0,80,0.00,,,0.00,WeatherCatV1.10B1784,2013-03-26 23:16:00,
2013-03-26 16:21:00,50.1,44.5,30.01,NNW,333,1.0,1.0,81,0.00,,,0.00,WeatherCatV1.10B1784,2013-03-26 23:21:00,
2013-03-26 16:26:00,50.2,44.3,30.01,NW,310,2.0,2.0,80,0.00,,,0.00,WeatherCatV1.10B1784,2013-03-26 23:26:00,
2013-03-26 16:31:00,50.4,44.5,30.01,NW,308,1.0,2.0,80,0.00,,,0.00,WeatherCatV1.10B1784,2013-03-26 23:31:00,
2013-03-26 16:36:00,51.0,45.0,30.01,WNW,297,1.0,1.0,80,0.00,,,0.00,WeatherCatV1.10B1784,2013-03-26 23:36:00,
2013-03-26 16:41:00,51.0,41.6,30.01,NNW,338,1.0,2.0,70,0.00,,,0.00,WeatherCatV1.10B1784,2013-03-26 23:41:00,
2013-03-26 16:46:00,50.7,41.6,30.01,NNW,340,1.0,2.0,71,0.00,,,0.00,WeatherCatV1.10B1784,2013-03-26 23:46:00,
2013-03-26 16:51:00,50.9,41.8,30.00,NW,304,1.0,1.0,71,0.00,,,0.00,WeatherCatV1.10B1784,2013-03-26 23:51:00,
2013-03-26 16:56:00,51.4,41.9,30.00,WNW,289,1.0,2.0,70,0.00,,,0.00,WeatherCatV1.10B1784,2013-03-26 23:56:00,
2013-03-26 17:01:00,51.6,41.8,30.00,NW,311,1.0,1.0,69,0.00,,,0.00,WeatherCatV1.10B1784,2013-03-27 00:01:00,
2013-03-26 17:06:00,52.1,41.9,30.00,NNW,346,1.0,2.0,68,0.00,,,0.00,WeatherCatV1.10B1784,2013-03-27 00:06:00,
2013-03-26 17:11:00,52.2,42.3,30.00,NW,307,0.0,1.0,69,0.00,,,0.00,WeatherCatV1.10B1784,2013-03-27 00:11:00,
2013-03-26 17:16:00,52.3,42.4,30.00,WNW,300,1.0,2.0,69,0.00,,,0.00,WeatherCatV1.10B1784,2013-03-27 00:16:00,
2013-03-26 17:21:00,52.5,43.0,30.00,WNW,301,1.0,1.0,70,0.00,,,0.00,WeatherCatV1.10B1784,2013-03-27 00:21:00,
2013-03-26 17:26:00,52.6,43.1,30.00,NW,309,1.0,1.0,70,0.00,,,0.00,WeatherCatV1.10B1784,2013-03-27 00:26:00,
2013-03-26 17:31:00,52.5,43.0,30.00,NW,307,1.0,2.0,70,0.00,,,0.00,WeatherCatV1.10B1784,2013-03-27 00:31:00,
2013-03-26 17:36:00,52.1,42.2,30.00,WNW,298,1.0,1.0,69,0.00,,,0.00,WeatherCatV1.10B1784,2013-03-27 00:36:00,
2013-03-26 17:41:00,51.9,42.1,30.00,WNW,287,1.0,1.0,69,0.00,,,0.00,WeatherCatV1.10B1784,2013-03-27 00:41:00,
2013-03-26 17:46:00,51.6,41.8,30.00,WNW,288,1.0,1.0,69,0.00,,,0.00,WeatherCatV1.10B1784,2013-03-27 00:46:00,
2013-03-26 17:51:00,51.5,40.5,30.00,WNW,288,0.0,1.0,66,0.00,,,0.00,WeatherCatV1.10B1784,2013-03-27 00:51:00,
2013-03-26 17:56:00,52.2,40.0,29.99,WNW,288,0.0,1.0,63,0.00,,,0.00,WeatherCatV1.10B1784,2013-03-27 00:56:00,
2013-03-26 18:01:00,52.8,40.6,29.99,WNW,288,1.0,1.0,63,0.00,,,0.00,WeatherCatV1.10B1784,2013-03-27 01:01:00,
2013-03-26 18:06:00,52.7,39.6,29.99,WNW,288,0.0,0.0,61,0.00,,,0.00,WeatherCatV1.10B1784,2013-03-27 01:06:00,
2013-03-26 18:11:00,52.2,40.0,29.99,WNW,288,0.0,1.0,63,0.00,,,0.00,WeatherCatV1.10B1784,2013-03-27 01:11:00,
2013-03-26 18:16:00,51.6,41.8,29.99,WNW,290,1.0,1.0,69,0.00,,,0.00,WeatherCatV1.10B1784,2013-03-27 01:16:00,
2013-03-26 18:21:00,51.0,42.3,30.00,WNW,290,0.0,1.0,72,0.00,,,0.00,WeatherCatV1.10B1784,2013-03-27 01:21:00,
2013-03-26 18:26:00,50.6,42.6,30.00,WNW,287,1.0,1.0,74,0.00,,,0.00,WeatherCatV1.10B1784,2013-03-27 01:26:00,
2013-03-26 18:32:00,50.2,41.5,30.00,WNW,287,1.0,1.0,72,0.00,,,0.00,WeatherCatV1.10B1784,2013-03-27 01:32:00,
2013-03-26 18:37:00,49.9,40.5,30.00,WNW,285,0.0,0.0,70,0.00,,,0.00,WeatherCatV1.10B1784,2013-03-27 01:37:00,
2013-03-26 18:42:00,49.7,39.2,30.00,WNW,285,1.0,1.0,67,0.00,,,0.00,WeatherCatV1.10B1784,2013-03-27 01:42:00,
2013-03-26 18:47:00,49.9,37.8,29.99,West,281,1.0,1.0,63,0.00,,,0.00,WeatherCatV1.10B1784,2013-03-27 01:47:00,
2013-03-26 18:52:00,50.0,36.7,29.99,WNW,284,1.0,1.0,60,0.00,,,0.00,WeatherCatV1.10B1784,2013-03-27 01:52:00,
2013-03-26 18:57:00,49.9,35.3,29.99,WNW,282,0.0,1.0,57,0.00,,,0.00,WeatherCatV1.10B1784,2013-03-27 01:57:00,
2013-03-26 19:02:00,49.9,36.1,29.99,WNW,282,0.0,1.0,59,0.00,,,0.00,WeatherCatV1.10B1784,2013-03-27 02:02:00,
2013-03-26 19:07:00,49.9,37.0,29.99,WNW,282,1.0,1.0,61,0.00,,,0.00,WeatherCatV1.10B1784,2013-03-27 02:07:00,
2013-03-26 19:12:00,49.7,38.8,29.99,WNW,283,1.0,1.0,66,0.00,,,0.00,WeatherCatV1.10B1784,2013-03-27 02:12:00,
2013-03-26 19:17:00,49.5,40.5,29.99,WNW,282,1.0,1.0,71,0.00,,,0.00,WeatherCatV1.10B1784,2013-03-27 02:17:00,
2013-03-26 19:22:00,49.3,40.7,29.99,WNW,284,1.0,1.0,72,0.00,,,0.00,WeatherCatV1.10B1784,2013-03-27 02:22:00,
2013-03-26 19:27:00,49.2,41.6,29.99,WNW,291,1.0,1.0,75,0.00,,,0.00,WeatherCatV1.10B1784,2013-03-27 02:27:00,
2013-03-26 19:32:00,49.1,42.2,29.99,WNW,290,0.0,0.0,77,0.00,,,0.00,WeatherCatV1.10B1784,2013-03-27 02:32:00,
2013-03-26 19:37:00,48.9,42.3,29.99,West,276,0.0,1.0,78,0.00,,,0.00,WeatherCatV1.10B1784,2013-03-27 02:37:00,
2013-03-26 19:42:00,48.7,42.5,29.99,West,275,1.0,1.0,79,0.00,,,0.00,WeatherCatV1.10B1784,2013-03-27 02:42:00,
2013-03-26 19:47:00,48.6,42.7,29.99,West,276,0.0,0.0,80,0.00,,,0.00,WeatherCatV1.10B1784,2013-03-27 02:47:00,
2013-03-26 19:52:00,48.4,42.8,29.99,West,274,0.0,1.0,81,0.00,,,0.00,WeatherCatV1.10B1784,2013-03-27 02:52:00,
2013-03-26 19:57:00,48.2,43.0,29.99,West,262,0.0,0.0,82,0.00,,,0.00,WeatherCatV1.10B1784,2013-03-27 02:57:00,
2013-03-26 20:02:00,48.1,42.9,29.99,WSW,245,0.0,0.0,82,0.00,,,0.00,WeatherCatV1.10B1784,2013-03-27 03:02:00,
2013-03-26 20:07:00,48.0,43.1,29.99,WSW,254,0.0,0.0,83,0.00,,,0.00,WeatherCatV1.10B1784,2013-03-27 03:07:00,
2013-03-26 20:12:00,47.8,42.6,29.99,WSW,245,0.0,0.0,82,0.00,,,0.00,WeatherCatV1.10B1784,2013-03-27 03:12:00,
2013-03-26 20:17:00,47.7,42.5,29.99,West,266,0.0,0.0,82,0.00,,,0.00,WeatherCatV1.10B1784,2013-03-27 03:17:00,
2013-03-26 20:22:00,47.7,42.2,29.99,WSW,257,0.0,0.0,81,0.00,,,0.00,WeatherCatV1.10B1784,2013-03-27 03:22:00,
2013-03-26 20:27:00,47.5,42.0,29.99,WSW,257,0.0,0.0,81,0.00,,,0.00,WeatherCatV1.10B1784,2013-03-27 03:27:00,
2013-03-26 20:32:00,47.3,41.8,29.99,WSW,257,0.0,0.0,81,0.00,,,0.00,WeatherCatV1.10B1784,2013-03-27 03:32:00,
2013-03-26 20:37:00,47.3,41.8,29.99,SW,233,0.0,0.0,81,0.00,,,0.00,WeatherCatV1.10B1784,2013-03-27 03:37:00,
2013-03-26 20:42:00,47.3,41.8,29.99,SW,221,1.0,2.0,81,0.00,,,0.00,WeatherCatV1.10B1784,2013-03-27 03:42:00,
2013-03-26 20:47:00,47.1,41.3,29.99,SSW,199,0.0,0.0,80,0.00,,,0.00,WeatherCatV1.10B1784,2013-03-27 03:47:00,
2013-03-26 20:52:00,46.8,41.3,29.99,SSW,198,0.0,0.0,81,0.00,,,0.00,WeatherCatV1.10B1784,2013-03-27 03:52:00,
2013-03-26 20:57:00,46.7,41.2,29.99,SSW,198,0.0,0.0,81,0.00,,,0.00,WeatherCatV1.10B1784,2013-03-27 03:57:00,
2013-03-26 21:00:00,46.7,41.2,29.99,SSW,211,1.0,1.0,81,0.00,,,0.00,WeatherCatV1.10B1784,2013-03-27 04:00:00,
2013-03-26 21:01:00,46.7,41.2,29.99,WSW,242,1.0,1.0,81,0.00,,,0.00,WeatherCatV1.10B1784,2013-03-27 04:01:00,
2013-03-26 21:06:00,46.7,40.9,29.99,SW,233,1.0,1.0,80,0.00,,,0.00,WeatherCatV1.10B1784,2013-03-27 04:06:00,
2013-03-26 21:11:00,46.7,40.9,29.99,SW,218,1.0,1.0,80,0.00,,,0.00,WeatherCatV1.10B1784,2013-03-27 04:11:00,
2013-03-26 21:16:00,46.6,41.1,29.99,SW,233,0.0,1.0,81,0.00,,,0.00,WeatherCatV1.10B1784,2013-03-27 04:16:00,
2013-03-26 21:21:00,46.5,41.0,29.99,SW,233,0.0,1.0,81,0.00,,,0.00,WeatherCatV1.10B1784,2013-03-27 04:21:00,
2013-03-26 21:26:00,46.4,40.9,29.99,SW,233,0.0,0.0,81,0.00,,,0.00,WeatherCatV1.10B1784,2013-03-27 04:26:00,
2013-03-26 21:31:00,46.4,40.9,30.00,SW,233,1.0,1.0,81,0.00,,,0.00,WeatherCatV1.10B1784,2013-03-27 04:31:00,
2013-03-26 21:36:00,46.5,41.3,29.99,SW,229,1.0,2.0,82,0.00,,,0.00,WeatherCatV1.10B1784,2013-03-27 04:36:00,
2013-03-26 21:41:00,46.5,41.0,29.99,WSW,242,2.0,3.0,81,0.00,,,0.00,WeatherCatV1.10B1784,2013-03-27 04:41:00,
2013-03-26 21:46:00,46.7,40.9,29.99,SW,226,2.0,4.0,80,0.00,,,0.00,WeatherCatV1.10B1784,2013-03-27 04:46:00,
2013-03-26 21:51:00,47.0,40.5,29.99,WSW,246,3.0,4.0,78,0.00,,,0.00,WeatherCatV1.10B1784,2013-03-27 04:51:00,
2013-03-26 21:56:00,47.3,39.8,29.99,SW,221,2.0,3.0,75,0.00,,,0.00,WeatherCatV1.10B1784,2013-03-27 04:56:00,
2013-03-26 22:01:00,47.5,39.3,29.99,WSW,248,3.0,5.0,73,0.00,,,0.00,WeatherCatV1.10B1784,2013-03-27 05:01:00,
2013-03-26 22:06:00,47.7,39.5,30.00,West,278,3.0,4.0,73,0.00,,,0.00,WeatherCatV1.10B1784,2013-03-27 05:06:00,
2013-03-26 22:11:00,47.7,39.1,30.00,WSW,249,1.0,4.0,72,0.00,,,0.00,WeatherCatV1.10B1784,2013-03-27 05:11:00,
2013-03-26 22:16:00,47.8,39.2,30.00,WSW,243,0.0,4.0,72,0.00,,,0.00,WeatherCatV1.10B1784,2013-03-27 05:16:00,
2013-03-26 22:21:00,47.9,39.3,29.99,WSW,252,1.0,3.0,72,0.00,,,0.00,WeatherCatV1.10B1784,2013-03-27 05:21:00,
2013-03-26 22:26:00,47.9,39.3,30.00,SW,226,1.0,2.0,72,0.00,,,0.00,WeatherCatV1.10B1784,2013-03-27 05:26:00,
2013-03-26 22:31:00,47.9,39.3,30.00,West,270,1.0,2.0,72,0.00,,,0.00,WeatherCatV1.10B1784,2013-03-27 05:31:00,
2013-03-26 22:36:00,47.9,39.0,29.99,WNW,283,2.0,3.0,71,0.00,,,0.00,WeatherCatV1.10B1784,2013-03-27 05:36:00,
2013-03-26 22:41:00,48.1,39.1,30.00,West,274,1.0,2.0,71,0.00,,,0.00,WeatherCatV1.10B1784,2013-03-27 05:41:00,
2013-03-26 22:46:00,48.1,39.1,29.99,West,277,0.0,2.0,71,0.00,,,0.00,WeatherCatV1.10B1784,2013-03-27 05:46:00,
2013-03-26 22:51:00,48.1,39.5,29.99,West,259,2.0,2.0,72,0.00,,,0.00,WeatherCatV1.10B1784,2013-03-27 05:51:00,
2013-03-26 22:56:00,48.1,39.5,29.99,WSW,246,1.0,2.0,72,0.00,,,0.00,WeatherCatV1.10B1784,2013-03-27 05:56:00,
2013-03-26 23:01:00,48.1,39.9,29.99,WSW,250,0.0,1.0,73,0.00,,,0.00,WeatherCatV1.10B1784,2013-03-27 06:01:00,
2013-03-26 23:06:00,48.1,39.9,29.99,WSW,253,0.0,2.0,73,0.00,,,0.00,WeatherCatV1.10B1784,2013-03-27 06:06:00,
2013-03-26 23:11:00,48.1,40.2,29.99,West,270,2.0,2.0,74,0.00,,,0.00,WeatherCatV1.10B1784,2013-03-27 06:11:00,
2013-03-26 23:16:00,48.1,40.2,29.99,West,262,0.0,1.0,74,0.00,,,0.00,WeatherCatV1.10B1784,2013-03-27 06:16:00,
2013-03-26 23:21:00,48.1,40.6,29.99,WSW,243,3.0,4.0,75,0.00,,,0.00,WeatherCatV1.10B1784,2013-03-27 06:21:00,
2013-03-26 23:26:00,48.2,40.7,29.99,West,262,2.0,3.0,75,0.00,,,0.00,WeatherCatV1.10B1784,2013-03-27 06:26:00,
2013-03-26 23:31:00,48.4,40.8,29.99,SW,233,2.0,4.0,75,0.00,,,0.00,WeatherCatV1.10B1784,2013-03-27 06:31:00,
2013-03-26 23:36:00,48.4,40.5,29.99,West,273,3.0,4.0,74,0.00,,,0.00,WeatherCatV1.10B1784,2013-03-27 06:36:00,
2013-03-26 23:41:00,48.4,40.5,29.99,West,266,1.0,2.0,74,0.00,,,0.00,WeatherCatV1.10B1784,2013-03-27 06:41:00,
2013-03-26 23:46:00,48.3,40.4,29.99,WNW,290,0.0,1.0,74,0.00,,,0.00,WeatherCatV1.10B1784,2013-03-27 06:46:00,
2013-03-26 23:51:00,48.1,40.6,29.99,West,280,1.0,2.0,75,0.00,,,0.00,WeatherCatV1.10B1784,2013-03-27 06:51:00,
2013-03-26 23:56:00,47.9,40.4,29.99,WSW,245,1.0,2.0,75,0.00,,,0.00,WeatherCatV1.10B1784,2013-03-27 06:56:00,